ANA9911 RJTT-RJCC

Flight info

Callsign ANA9911
Flight time 1h 8m
Altitude 37000
Route BRUCE AGRIS Y11 SAMBO Y119 OHMAR Y13 SIRAO Y139 NAVER
Aircraft B772/H-SDE2E3FGHIJ5LORVWXY/LB1D1

Departure

Time 2026-05-04 03:01
Airport Tokyo Haneda International Airport (RJTT)

Arrival

Time 2026-05-04 04:10
Airport New Chitose Airport (RJCC)
Time Latitude Longitude Altitude Speed Heading
2026-05-04 02:35 35.55461 139.78879 27 ft 0 kts 330°
2026-05-04 02:54 35.55455 139.78882 27 ft 2 kts 330°
2026-05-04 02:54 35.55442 139.78893 27 ft 2 kts 330°
2026-05-04 02:54 35.55429 139.78902 27 ft 2 kts 330°
2026-05-04 02:54 35.55416 139.78911 27 ft 2 kts 330°
2026-05-04 02:55 35.55389 139.78914 27 ft 2 kts 48°
2026-05-04 02:55 35.55385 139.78906 27 ft 1 kts 61°
2026-05-04 02:55 35.55384 139.78903 27 ft 0 kts 60°
2026-05-04 02:57 35.55391 139.78919 27 ft 5 kts 60°
2026-05-04 02:57 35.55424 139.78990 24 ft 13 kts 60°
2026-05-04 02:58 35.55485 139.79108 20 ft 17 kts 39°
2026-05-04 02:58 35.55607 139.79092 18 ft 19 kts 330°
2026-05-04 02:58 35.55729 139.79007 19 ft 20 kts 329°
2026-05-04 02:58 35.55853 139.78920 20 ft 21 kts 329°
2026-05-04 02:59 35.55985 139.78822 19 ft 23 kts 328°
2026-05-04 02:59 35.56131 139.78722 19 ft 24 kts 330°
2026-05-04 02:59 35.56282 139.78612 18 ft 25 kts 329°
2026-05-04 02:59 35.56439 139.78496 17 ft 24 kts 337°
2026-05-04 03:00 35.56531 139.78589 16 ft 19 kts 86°
2026-05-04 03:00 35.56479 139.78732 16 ft 19 kts 139°
2026-05-04 03:00 35.56366 139.78819 16 ft 19 kts 149°
2026-05-04 03:00 35.56247 139.78905 16 ft 20 kts 150°
2026-05-04 03:01 35.56067 139.79033 16 ft 53 kts 151°
2026-05-04 03:01 35.55648 139.79303 16 ft 78 kts 146°
2026-05-04 03:01 35.54966 139.79790 20 ft 152 kts 158°
2026-05-04 03:01 35.53959 139.80633 849 ft 180 kts 149°
2026-05-04 03:02 35.53073 139.81584 1888 ft 186 kts 143°
2026-05-04 03:02 35.52154 139.82716 3119 ft 202 kts 142°
2026-05-04 03:02 35.51154 139.83957 4282 ft 219 kts 143°
2026-05-04 03:02 35.50059 139.85318 5421 ft 236 kts 144°
2026-05-04 03:03 35.48865 139.86797 6470 ft 255 kts 145°
2026-05-04 03:03 35.47610 139.88354 7710 ft 270 kts 145°
2026-05-04 03:03 35.46354 139.90152 8872 ft 300 kts 132°
2026-05-04 03:03 35.45534 139.92729 9488 ft 357 kts 109°
2026-05-04 03:04 35.45403 139.96025 9579 ft 417 kts 90°
2026-05-04 03:04 35.45870 139.99707 9570 ft 466 kts 79°
2026-05-04 03:04 35.46917 140.03603 9554 ft 464 kts 69°
2026-05-04 03:04 35.48338 140.06943 9574 ft 425 kts 57°
2026-05-04 03:05 35.50115 140.09749 10100 ft 425 kts 46°
2026-05-04 03:05 35.52323 140.12234 10812 ft 446 kts 34°
2026-05-04 03:05 35.55003 140.14343 11589 ft 461 kts 23°
2026-05-04 03:05 35.57929 140.15851 12376 ft 452 kts 11°
2026-05-04 03:06 35.60903 140.16698 13330 ft 437 kts
2026-05-04 03:06 35.63867 140.16960 14141 ft 416 kts 351°
2026-05-04 03:06 35.66650 140.16731 14498 ft 389 kts 341°
2026-05-04 03:06 35.69240 140.16080 14553 ft 375 kts 333°
2026-05-04 03:07 35.71673 140.15025 14564 ft 362 kts 324°
2026-05-04 03:07 35.73872 140.13647 14559 ft 352 kts 317°
2026-05-04 03:07 35.75874 140.11958 14562 ft 343 kts 309°
2026-05-04 03:07 35.77613 140.10056 14556 ft 332 kts 303°
2026-05-04 03:08 35.79127 140.07933 14559 ft 326 kts 296°
2026-05-04 03:08 35.80504 140.05711 14553 ft 323 kts 295°
2026-05-04 03:08 35.81846 140.03514 14561 ft 321 kts 295°
2026-05-04 03:08 35.83182 140.01317 14558 ft 319 kts 295°
2026-05-04 03:09 35.84500 139.99149 14552 ft 318 kts 295°
2026-05-04 03:09 35.85822 139.96971 14582 ft 319 kts 295°
2026-05-04 03:09 35.87149 139.94780 14531 ft 320 kts 295°
2026-05-04 03:09 35.88480 139.92586 14554 ft 318 kts 295°
2026-05-04 03:10 35.89845 139.90430 14584 ft 324 kts 301°
2026-05-04 03:10 35.91629 139.88596 14561 ft 351 kts 316°
2026-05-04 03:10 35.93936 139.87264 15253 ft 371 kts 327°
2026-05-04 03:10 35.96343 139.86259 16370 ft 374 kts 334°
2026-05-04 03:11 35.98991 139.85828 17163 ft 394 kts 347°
2026-05-04 03:11 36.01765 139.86023 17832 ft 415 kts 360°
2026-05-04 03:11 36.04636 139.86948 18573 ft 433 kts 13°
2026-05-04 03:11 36.07423 139.88385 19308 ft 440 kts 16°
2026-05-04 03:12 36.10260 139.89882 19975 ft 447 kts 16°
2026-05-04 03:12 36.13144 139.91354 20625 ft 452 kts 14°
2026-05-04 03:12 36.16070 139.92813 21252 ft 457 kts 14°
2026-05-04 03:12 36.19068 139.94041 21865 ft 453 kts
2026-05-04 03:13 36.22159 139.94661 22322 ft 449 kts 353°
2026-05-04 03:13 36.25263 139.94716 22912 ft 446 kts 347°
2026-05-04 03:13 36.28341 139.94640 23713 ft 444 kts 347°
2026-05-04 03:13 36.31418 139.94554 24439 ft 446 kts 346°
2026-05-04 03:14 36.34525 139.94464 25076 ft 449 kts 347°
2026-05-04 03:14 36.37639 139.94373 25576 ft 456 kts 347°
2026-05-04 03:14 36.40873 139.94313 26070 ft 466 kts 351°
2026-05-04 03:14 36.44116 139.94748 26654 ft 481 kts 359°
2026-05-04 03:15 36.47419 139.95555 27211 ft 486 kts
2026-05-04 03:15 36.50761 139.96414 27709 ft 490 kts
2026-05-04 03:15 36.54102 139.97275 28169 ft 494 kts
2026-05-04 03:15 36.57481 139.98143 28621 ft 498 kts
2026-05-04 03:16 36.60863 139.99011 29044 ft 502 kts
2026-05-04 03:16 36.64283 139.99889 29541 ft 505 kts
2026-05-04 03:16 36.67743 140.00775 30006 ft 508 kts
2026-05-04 03:16 36.71181 140.01657 30441 ft 511 kts
2026-05-04 03:17 36.74716 140.02563 30900 ft 514 kts
2026-05-04 03:17 36.78194 140.03456 31328 ft 518 kts
2026-05-04 03:17 36.81742 140.04366 31710 ft 522 kts
2026-05-04 03:17 36.85321 140.05286 32110 ft 526 kts
2026-05-04 03:18 36.88916 140.06210 32600 ft 527 kts
2026-05-04 03:18 36.92510 140.07135 32918 ft 532 kts
2026-05-04 03:18 36.96115 140.08063 33367 ft 534 kts
2026-05-04 03:18 36.99773 140.09007 33838 ft 536 kts
2026-05-04 03:19 37.03399 140.09944 34379 ft 535 kts
2026-05-04 03:19 37.07058 140.10892 35010 ft 533 kts
2026-05-04 03:19 37.10713 140.11839 35620 ft 530 kts
2026-05-04 03:19 37.14339 140.12778 36011 ft 531 kts
2026-05-04 03:20 37.17966 140.13718 36484 ft 530 kts
2026-05-04 03:20 37.21605 140.14661 36910 ft 529 kts
2026-05-04 03:20 37.25215 140.15599 37304 ft 529 kts
2026-05-04 03:20 37.28791 140.16527 37584 ft 529 kts
2026-05-04 03:21 37.32442 140.17474 37591 ft 532 kts
2026-05-04 03:21 37.39647 140.19353 37585 ft 527 kts
2026-05-04 03:22 37.46834 140.21227 37592 ft 529 kts
2026-05-04 03:22 37.54033 140.23108 37597 ft 530 kts
2026-05-04 03:23 37.61250 140.24999 37602 ft 528 kts
2026-05-04 03:23 37.68460 140.26891 37618 ft 528 kts
2026-05-04 03:24 37.75635 140.28775 37622 ft 531 kts
2026-05-04 03:24 37.82867 140.30682 37611 ft 530 kts
2026-05-04 03:25 37.90134 140.32600 37609 ft 529 kts
2026-05-04 03:25 37.97337 140.34506 37606 ft 531 kts
2026-05-04 03:26 38.04576 140.36424 37608 ft 532 kts
2026-05-04 03:26 38.11881 140.38362 37586 ft 534 kts
2026-05-04 03:27 38.19146 140.40299 37593 ft 533 kts
2026-05-04 03:27 38.26407 140.42235 37600 ft 533 kts
2026-05-04 03:28 38.33664 140.44173 37605 ft 535 kts
2026-05-04 03:28 38.40921 140.46118 37609 ft 532 kts
2026-05-04 03:29 38.48156 140.48059 37610 ft 532 kts
2026-05-04 03:29 38.55431 140.50014 37601 ft 536 kts
2026-05-04 03:30 38.62755 140.51981 37607 ft 545 kts
2026-05-04 03:30 38.70194 140.53992 37602 ft 543 kts
2026-05-04 03:31 38.77498 140.55977 37593 ft 536 kts 360°
2026-05-04 03:31 38.84799 140.57956 37603 ft 534 kts
2026-05-04 03:32 38.92049 140.59924 37592 ft 534 kts
2026-05-04 03:32 38.99370 140.61914 37575 ft 539 kts 360°
2026-05-04 03:33 39.06675 140.63908 37583 ft 538 kts
2026-05-04 03:33 39.13991 140.65910 37523 ft 536 kts
2026-05-04 03:34 39.21329 140.67918 37531 ft 539 kts
2026-05-04 03:34 39.28643 140.69930 37530 ft 537 kts
2026-05-04 03:35 39.35909 140.71930 37539 ft 536 kts
2026-05-04 03:35 39.43242 140.73947 37528 ft 541 kts
2026-05-04 03:36 39.50599 140.75980 37535 ft 544 kts
2026-05-04 03:36 39.57950 140.78023 37515 ft 536 kts
2026-05-04 03:37 39.65252 140.80045 37530 ft 543 kts
2026-05-04 03:37 39.72643 140.82101 37520 ft 540 kts
2026-05-04 03:38 39.79959 140.84143 37510 ft 541 kts
2026-05-04 03:38 39.87341 140.86202 37526 ft 545 kts
2026-05-04 03:39 39.94763 140.88278 37512 ft 546 kts
2026-05-04 03:39 40.02185 140.90364 37510 ft 546 kts
2026-05-04 03:40 40.09675 140.92468 37527 ft 552 kts
2026-05-04 03:40 40.17224 140.94562 37481 ft 557 kts 359°
2026-05-04 03:41 40.24799 140.95268 37490 ft 548 kts 349°
2026-05-04 03:41 40.32482 140.95505 37494 ft 554 kts 349°
2026-05-04 03:42 40.40253 140.95746 37469 ft 561 kts 349°
2026-05-04 03:42 40.48125 140.95999 37480 ft 567 kts 349°
2026-05-04 03:43 40.56028 140.96258 37481 ft 571 kts 350°
2026-05-04 03:43 40.64014 140.96521 37485 ft 576 kts 350°
2026-05-04 03:44 40.71964 140.96790 37471 ft 566 kts 351°
2026-05-04 03:44 40.75818 140.96933 37473 ft 546 kts 351°
2026-05-04 03:44 40.79554 140.97067 37486 ft 533 kts 349°
2026-05-04 03:45 40.86968 140.97313 37464 ft 525 kts 349°
2026-05-04 03:45 40.94316 140.97545 37456 ft 533 kts 349°
2026-05-04 03:46 41.01727 140.97783 37483 ft 539 kts 349°
2026-05-04 03:46 41.09192 140.98039 37452 ft 529 kts 350°
2026-05-04 03:47 41.16559 140.98283 37437 ft 532 kts 349°
2026-05-04 03:47 41.23940 140.98531 37420 ft 535 kts 350°
2026-05-04 03:48 41.31442 140.99405 37416 ft 548 kts
2026-05-04 03:48 41.38700 141.02539 37415 ft 558 kts 13°
2026-05-04 03:49 41.45988 141.06174 37382 ft 563 kts 13°
2026-05-04 03:49 41.49667 141.08011 37068 ft 565 kts 13°
2026-05-04 03:49 41.53359 141.09857 36726 ft 561 kts 14°
2026-05-04 03:49 41.57005 141.11679 36373 ft 565 kts 14°
2026-05-04 03:50 41.60725 141.13533 35779 ft 576 kts 13°
2026-05-04 03:50 41.64443 141.15393 35442 ft 574 kts 13°
2026-05-04 03:50 41.68151 141.17253 35145 ft 570 kts 13°
2026-05-04 03:50 41.71869 141.19116 34864 ft 574 kts 12°
2026-05-04 03:51 41.75638 141.21005 34583 ft 575 kts 12°
2026-05-04 03:51 41.79339 141.22864 34307 ft 578 kts 12°
2026-05-04 03:51 41.83154 141.24779 34023 ft 578 kts 12°
2026-05-04 03:51 41.86904 141.26666 33747 ft 581 kts 12°
2026-05-04 03:52 41.90698 141.28580 33465 ft 582 kts 13°
2026-05-04 03:52 41.94383 141.30837 33161 ft 594 kts 23°
2026-05-04 03:52 41.97918 141.33778 32843 ft 598 kts 32°
2026-05-04 03:52 42.01135 141.37279 32533 ft 599 kts 41°
2026-05-04 03:53 42.04192 141.41144 32206 ft 606 kts 43°
2026-05-04 03:53 42.07195 141.45024 31640 ft 610 kts 43°
2026-05-04 03:53 42.10270 141.48981 30879 ft 603 kts 42°
2026-05-04 03:53 42.13459 141.52455 30037 ft 578 kts 31°
2026-05-04 03:54 42.16761 141.55246 29289 ft 556 kts 25°
2026-05-04 03:54 42.20081 141.57762 28554 ft 548 kts 24°
2026-05-04 03:54 42.23410 141.60254 27822 ft 551 kts 25°
2026-05-04 03:54 42.26776 141.62772 27075 ft 553 kts 24°
2026-05-04 03:55 42.30120 141.65274 26322 ft 548 kts 25°
2026-05-04 03:55 42.33450 141.67766 25563 ft 547 kts 26°
2026-05-04 03:55 42.36782 141.70262 24808 ft 550 kts 25°
2026-05-04 03:55 42.40103 141.72752 24065 ft 544 kts 25°
2026-05-04 03:56 42.43415 141.75238 23353 ft 544 kts 25°
2026-05-04 03:56 42.46725 141.77725 22673 ft 542 kts 25°
2026-05-04 03:56 42.49955 141.80154 22020 ft 531 kts 25°
2026-05-04 03:56 42.53083 141.82486 21367 ft 501 kts 21°
2026-05-04 03:57 42.56217 141.84268 20716 ft 470 kts 12°
2026-05-04 03:57 42.59248 141.85309 20076 ft 441 kts
2026-05-04 03:57 42.62195 141.85684 19420 ft 412 kts 351°
2026-05-04 03:57 42.64977 141.85643 18751 ft 394 kts 349°
2026-05-04 03:58 42.70314 141.85425 17385 ft 375 kts 348°
2026-05-04 03:58 42.72871 141.85268 16686 ft 370 kts 349°
2026-05-04 03:58 42.75432 141.85088 15972 ft 365 kts 348°
2026-05-04 03:59 42.77942 141.84888 15258 ft 359 kts 348°
2026-05-04 03:59 42.80386 141.84682 14543 ft 351 kts 348°
2026-05-04 03:59 42.82748 141.84326 13823 ft 336 kts 341°
2026-05-04 03:59 42.84996 141.83666 13093 ft 324 kts 339°
2026-05-04 04:00 42.87163 141.82976 12374 ft 316 kts 339°
2026-05-04 04:00 42.89265 141.82304 11656 ft 310 kts 339°
2026-05-04 04:00 42.91333 141.81644 10790 ft 310 kts 340°
2026-05-04 04:00 42.93421 141.80977 9781 ft 313 kts 341°
2026-05-04 04:01 42.95542 141.80302 8776 ft 315 kts 341°
2026-05-04 04:01 42.97666 141.79629 7782 ft 315 kts 341°
2026-05-04 04:01 42.99741 141.78859 7073 ft 299 kts 329°
2026-05-04 04:01 43.01419 141.77472 6585 ft 274 kts 316°
2026-05-04 04:02 43.02686 141.75737 6168 ft 245 kts 292°
2026-05-04 04:02 43.03199 141.73686 5793 ft 220 kts 269°
2026-05-04 04:02 43.03074 141.71692 5409 ft 207 kts 248°
2026-05-04 04:02 43.02496 141.69904 5006 ft 203 kts 237°
2026-05-04 04:03 43.01805 141.68256 4663 ft 194 kts 234°
2026-05-04 04:03 43.01069 141.66870 4751 ft 174 kts 225°
2026-05-04 04:03 43.00116 141.65794 4623 ft 179 kts 209°
2026-05-04 04:03 42.98965 141.65230 4303 ft 175 kts 191°
2026-05-04 04:04 42.97764 141.65233 3953 ft 171 kts 175°
2026-05-04 04:04 42.96639 141.65601 3737 ft 169 kts 168°
2026-05-04 04:04 42.95488 141.65920 3507 ft 165 kts 174°
2026-05-04 04:04 42.94384 141.66106 3296 ft 152 kts 174°
2026-05-04 04:05 42.93382 141.66269 3095 ft 140 kts 174°
2026-05-04 04:05 42.92435 141.66429 2905 ft 133 kts 174°
2026-05-04 04:05 42.91544 141.66583 2748 ft 126 kts 174°
2026-05-04 04:05 42.90672 141.66734 2570 ft 128 kts 173°
2026-05-04 04:06 42.89780 141.66891 2380 ft 130 kts 173°
2026-05-04 04:06 42.88894 141.67049 2202 ft 129 kts 173°
2026-05-04 04:06 42.87985 141.67207 2018 ft 131 kts 173°
2026-05-04 04:06 42.87100 141.67363 1828 ft 124 kts 172°
2026-05-04 04:07 42.86260 141.67511 1657 ft 119 kts 172°
2026-05-04 04:07 42.85447 141.67653 1493 ft 120 kts 172°
2026-05-04 04:07 42.84630 141.67798 1313 ft 118 kts 173°
2026-05-04 04:07 42.83809 141.67943 1145 ft 117 kts 173°
2026-05-04 04:08 42.83026 141.68080 973 ft 111 kts 173°
2026-05-04 04:08 42.82267 141.68211 833 ft 107 kts 173°
2026-05-04 04:08 42.81524 141.68344 680 ft 107 kts 173°
2026-05-04 04:08 42.80796 141.68471 537 ft 106 kts 173°
2026-05-04 04:09 42.80055 141.68602 373 ft 106 kts 174°
2026-05-04 04:09 42.79324 141.68730 246 ft 106 kts 174°
2026-05-04 04:09 42.78594 141.68857 97 ft 101 kts 173°
2026-05-04 04:09 42.78022 141.68955 96 ft 67 kts 172°
2026-05-04 04:10 42.77627 141.69022 96 ft 49 kts 170°
2026-05-04 04:10 42.77343 141.69073 96 ft 28 kts 184°
2026-05-04 04:10 42.77158 141.69017 96 ft 27 kts 203°
2026-05-04 04:10 42.77095 141.68910 96 ft 6 kts 313°
2026-05-04 04:11 42.77122 141.68890 96 ft 5 kts 341°
2026-05-04 04:11 42.77178 141.68874 96 ft 10 kts 353°
2026-05-04 04:11 42.77274 141.68858 96 ft 16 kts 353°
2026-05-04 04:11 42.77404 141.68834 96 ft 21 kts 353°
2026-05-04 04:12 42.77551 141.68806 96 ft 22 kts 352°
2026-05-04 04:12 42.77725 141.68777 96 ft 27 kts 354°
2026-05-04 04:12 42.77918 141.68749 96 ft 29 kts 353°
2026-05-04 04:12 42.78132 141.68712 96 ft 33 kts 355°
2026-05-04 04:13 42.78370 141.68666 96 ft 36 kts 351°
2026-05-04 04:13 42.78595 141.68622 96 ft 27 kts 359°
2026-05-04 04:13 42.78662 141.68503 96 ft 11 kts 268°
2026-05-04 04:13 42.78698 141.68408 96 ft 10 kts 338°
2026-05-04 04:14 42.78723 141.68333 96 ft 9 kts 274°
2026-05-04 04:14 42.78725 141.68286 96 ft 6 kts 274°
2026-05-04 04:14 42.78728 141.68222 97 ft 0 kts 274°